Alva, OK

3:54 PM CDT on October 17, 2017 (GMT -0500)
Alva Regional

Weather History for KAVK - June, 2013

Change the Weather History Date:

Saturday, June 29, 2013

  Actual Average Record
Temperature  
Mean Temperature 80 °F -  
Max Temperature 93 °F 95 °F 108 °F (1952)
Min Temperature 66 °F 71 °F 61 °F (1948)
Cooling Degree Days 14    
Growing Degree Days 30 (Base 50)    
Moisture  
Dew Point 58 °F    
Average Humidity 49    
Maximum Humidity 94    
Minimum Humidity 28    
Precipitation  
Precipitation 0.02 in - - ()
Sea Level Pressure  
Sea Level Pressure 29.98 in    
Wind  
Wind Speed 9 mph (North)    
Max Wind Speed 17 mph    
Max Gust Speed 24 mph    
Visibility 10 miles    
Events Rain , Thunderstorm    
Averages and records for this station are not official NWS values.
T = Trace of Precipitation, MM = Missing Value Source: NWS Daily Summary

Daily Weather History Graph

Daily Weather History Graph

Search for Another Location

Airport or City:

Trip Planner

Search our weather history database for the weather conditions in past years. The results will help you decide how hot, cold, wet, or windy it might be!

Date:

Astronomy

Jun. 29, 2013 Rise Set
Actual Time 6:18 AM CDT 8:57 PM CDT
Civil Twilight 5:48 AM CDT 9:28 PM CDT
Nautical Twilight 5:09 AM CDT 10:06 PM CDT
Astronomical Twilight 4:27 AM CDT 10:48 PM CDT
Moon 12:38 AM CDT (6/29) 1:20 PM CDT (6/29)
Length of Visible Light 15h 40m
Length of Day
14h 39m
Waning Gibbous, 55% of the Moon is Illuminated
Jun 29
Waning Gibbous
Jun 29
Last Quarter
Jul 8
New
Jul 15
First Quarter
Jul 22
Full

Hourly Weather History & Observations

Time (CDT) Temp. Heat Index Dew Point Humidity Pressure Visibility Wind Dir Wind Speed Gust Speed Precip Events Conditions
12:00 AM 78.8 °F - 62.6 °F 57% 29.97 in 10.0 mi NE 5.8 mph - N/A   Clear
12:20 AM 77.0 °F - 62.6 °F 61% 29.97 in 10.0 mi NNE 5.8 mph - N/A   Clear
12:40 AM 77.0 °F - 62.6 °F 61% 29.97 in 10.0 mi NNE 4.6 mph - N/A   Clear
1:00 AM 75.2 °F - 62.6 °F 65% 29.98 in 10.0 mi NNE 8.1 mph - N/A   Clear
1:20 AM 77.0 °F - 60.8 °F 57% 29.98 in 10.0 mi NNE 9.2 mph - N/A   Clear
1:45 AM 77.0 °F - 60.8 °F 57% 29.98 in 10.0 mi NNE 9.2 mph - N/A   Clear
2:00 AM 75.2 °F - 59.0 °F 57% 29.99 in 10.0 mi NNE 9.2 mph - N/A   Clear
2:20 AM 75.2 °F - 59.0 °F 57% 30.00 in 10.0 mi North 9.2 mph - N/A   Clear
2:40 AM 75.2 °F - 59.0 °F 57% 30.01 in 10.0 mi NNE 10.4 mph - N/A   Clear
3:00 AM 75.2 °F - 59.0 °F 57% 30.00 in 10.0 mi NNE 6.9 mph - N/A   Scattered Clouds
3:20 AM 75.2 °F - 59.0 °F 57% 30.00 in 10.0 mi NE 3.5 mph - N/A   Partly Cloudy
3:40 AM 73.4 °F - 59.0 °F 61% 30.00 in 10.0 mi ENE 4.6 mph - N/A   Scattered Clouds
4:00 AM 75.2 °F - 59.0 °F 57% 29.99 in 10.0 mi East 5.8 mph - N/A   Partly Cloudy
4:20 AM 73.4 °F - 60.8 °F 65% 30.00 in 10.0 mi ENE 9.2 mph - N/A   Partly Cloudy
4:40 AM 71.6 °F - 60.8 °F 69% 30.01 in 10.0 mi NE 8.1 mph - N/A   Clear
5:00 AM 73.4 °F - 60.8 °F 65% 30.00 in 10.0 mi ENE 5.8 mph - N/A   Scattered Clouds
5:20 AM 73.4 °F - 60.8 °F 65% 30.07 in 10.0 mi North 15.0 mph - N/A   Mostly Cloudy
5:40 AM 68.0 °F - 60.8 °F 78% 30.00 in 5.0 mi SE 11.5 mph - 0.01 in Rain , Thunderstorm Light Thunderstorms and Rain
6:00 AM 66.2 °F - 62.6 °F 88% 30.01 in 10.0 mi NNW 3.5 mph - 0.01 in   Scattered Clouds
6:20 AM 66.2 °F - 64.4 °F 94% 30.00 in 10.0 mi SSW 3.5 mph - N/A Thunderstorm Clear
6:40 AM 66.2 °F - 64.4 °F 94% 30.03 in 10.0 mi WNW 8.1 mph - N/A   Clear
7:00 AM 68.0 °F - 64.4 °F 88% 30.03 in 10.0 mi WNW 6.9 mph - N/A   Clear
7:20 AM 69.8 °F - 64.4 °F 83% 30.05 in 10.0 mi WNW 9.2 mph - N/A Thunderstorm Clear
7:40 AM 71.6 °F - 62.6 °F 73% 30.07 in 10.0 mi NW 9.2 mph - N/A   Mostly Cloudy
8:00 AM 71.6 °F - 64.4 °F 78% 30.06 in 10.0 mi Calm Calm - N/A   Mostly Cloudy
8:20 AM 71.6 °F - 62.6 °F 73% 30.07 in 10.0 mi NNW 8.1 mph - N/A   Mostly Cloudy
8:45 AM 71.6 °F - 64.4 °F 78% 30.06 in 10.0 mi North 8.1 mph - N/A   Scattered Clouds
9:00 AM 73.4 °F - 64.4 °F 73% 30.04 in 10.0 mi North 8.1 mph - N/A   Scattered Clouds
9:20 AM 75.2 °F - 64.4 °F 69% 30.04 in 10.0 mi NNW 9.2 mph - N/A   Scattered Clouds
9:40 AM 77.0 °F - 62.6 °F 61% 30.04 in 10.0 mi NNW 9.2 mph - N/A   Clear
10:00 AM 77.0 °F - 62.6 °F 61% 30.04 in 10.0 mi North 8.1 mph - N/A   Clear
10:25 AM 80.6 °F 81.1 °F 59.0 °F 48% 30.04 in 10.0 mi NNW 10.4 mph - N/A   Clear
10:40 AM 80.6 °F 81.1 °F 59.0 °F 48% 30.04 in 10.0 mi North 9.2 mph - N/A   Clear
11:00 AM 82.4 °F 82.0 °F 57.2 °F 42% 30.02 in 10.0 mi NNW 3.5 mph - N/A   Clear
11:20 AM 82.4 °F 81.4 °F 53.6 °F 37% 30.02 in 10.0 mi North 4.6 mph - N/A   Clear
11:40 AM 86.0 °F 84.5 °F 55.4 °F 35% 30.03 in 10.0 mi North 5.8 mph - N/A   Clear
12:00 PM 84.2 °F 83.0 °F 55.4 °F 37% 30.02 in 10.0 mi NNW 5.8 mph - N/A   Clear
12:20 PM 86.0 °F 84.5 °F 55.4 °F 35% 30.02 in 10.0 mi North 8.1 mph - N/A   Clear
12:40 PM 87.8 °F 85.7 °F 53.6 °F 31% 30.02 in 10.0 mi North 8.1 mph - N/A   Clear
1:00 PM 89.6 °F 87.7 °F 55.4 °F 31% 30.01 in 10.0 mi North 11.5 mph 18.4 mph N/A   Clear
1:20 PM 89.6 °F 87.3 °F 53.6 °F 29% 30.00 in 10.0 mi North 13.8 mph 20.7 mph N/A   Clear
1:40 PM 89.6 °F 87.7 °F 55.4 °F 31% 30.00 in 10.0 mi NNW 15.0 mph 21.9 mph N/A   Clear
2:00 PM 89.6 °F 87.7 °F 55.4 °F 31% 29.99 in 10.0 mi North 16.1 mph 19.6 mph N/A   Clear
2:20 PM 91.4 °F 89.9 °F 57.2 °F 31% 29.98 in 10.0 mi NNW 11.5 mph 18.4 mph N/A   Clear
2:40 PM 91.4 °F 89.4 °F 55.4 °F 29% 29.97 in 10.0 mi NNW 17.3 mph 23.0 mph N/A   Clear
3:00 PM 91.4 °F 89.9 °F 57.2 °F 31% 29.96 in 10.0 mi NNW 15.0 mph 19.6 mph N/A   Partly Cloudy
3:20 PM 93.2 °F 91.3 °F 55.4 °F 28% 29.95 in 10.0 mi NNW 17.3 mph 21.9 mph N/A   Partly Cloudy
3:40 PM 93.2 °F 91.3 °F 55.4 °F 28% 29.95 in 10.0 mi North 16.1 mph 24.2 mph N/A   Clear
4:00 PM 91.4 °F 89.9 °F 57.2 °F 31% 29.94 in 10.0 mi NNW 17.3 mph 21.9 mph N/A   Partly Cloudy
4:20 PM 93.2 °F 91.9 °F 57.2 °F 30% 29.94 in 10.0 mi NNW 15.0 mph 21.9 mph N/A   Partly Cloudy
4:40 PM 93.2 °F 91.9 °F 57.2 °F 30% 29.93 in 10.0 mi NNW 13.8 mph 21.9 mph N/A   Partly Cloudy
5:00 PM 91.4 °F 89.9 °F 57.2 °F 31% 29.92 in 10.0 mi North 9.2 mph - N/A   Scattered Clouds
5:20 PM 93.2 °F 91.9 °F 57.2 °F 30% 29.91 in 10.0 mi North 10.4 mph 16.1 mph N/A   Scattered Clouds
5:40 PM 93.2 °F 91.9 °F 57.2 °F 30% 29.91 in 10.0 mi NNE 8.1 mph 16.1 mph N/A   Scattered Clouds
6:00 PM 93.2 °F 91.3 °F 55.4 °F 28% 29.90 in 10.0 mi North 12.7 mph 20.7 mph N/A   Scattered Clouds
6:20 PM 91.4 °F 89.4 °F 55.4 °F 29% 29.89 in 10.0 mi NNE 17.3 mph 21.9 mph N/A   Clear
6:40 PM 91.4 °F 89.4 °F 55.4 °F 29% 29.90 in 10.0 mi North 13.8 mph 18.4 mph N/A   Mostly Cloudy
7:00 PM 89.6 °F 87.7 °F 55.4 °F 31% 29.90 in 10.0 mi NNE 12.7 mph 19.6 mph N/A   Scattered Clouds
7:20 PM 89.6 °F 87.3 °F 53.6 °F 29% 29.90 in 10.0 mi NNE 13.8 mph - N/A   Mostly Cloudy
7:40 PM 89.6 °F 87.7 °F 55.4 °F 31% 29.90 in 10.0 mi NNE 10.4 mph - N/A   Overcast
8:00 PM 87.8 °F 86.1 °F 55.4 °F 33% 29.90 in 10.0 mi NNE 11.5 mph - N/A   Mostly Cloudy
8:20 PM 86.0 °F 84.5 °F 55.4 °F 35% 29.91 in 10.0 mi NE 12.7 mph - N/A   Scattered Clouds
8:40 PM 84.2 °F 83.0 °F 55.4 °F 37% 29.91 in 10.0 mi NE 9.2 mph - N/A   Clear
9:05 PM 82.4 °F 81.7 °F 55.4 °F 39% 29.92 in 10.0 mi NE 12.7 mph - N/A   Clear
9:20 PM 82.4 °F 81.7 °F 55.4 °F 39% 29.93 in 10.0 mi ENE 8.1 mph - N/A   Clear
9:40 PM 80.6 °F 80.5 °F 55.4 °F 42% 29.94 in 10.0 mi NE 10.4 mph - N/A   Clear
10:00 PM 78.8 °F - 55.4 °F 44% 29.95 in 10.0 mi NE 10.4 mph - N/A   Clear
10:20 PM 77.0 °F - 55.4 °F 47% 29.96 in 10.0 mi NE 12.7 mph - N/A   Clear
10:40 PM 77.0 °F - 53.6 °F 44% 29.97 in 10.0 mi NE 12.7 mph - N/A   Clear
11:00 PM 77.0 °F - 53.6 °F 44% 29.97 in 10.0 mi NE 10.4 mph - N/A   Clear
11:20 PM 75.2 °F - 53.6 °F 47% 29.97 in 10.0 mi NE 10.4 mph - N/A   Clear
11:40 PM 73.4 °F - 53.6 °F 50% 29.97 in 10.0 mi NE 9.2 mph - N/A   Clear